When you browse on this site, cookies collect data to enhance your experience and personalize the content and advertising you see.
Visit our Privacy Policy to learn more. By continuing to use the site, you agree to this use of cookies and data.
  • En España
  • Lista de países
  • Para 7 días
  • Temperatura del agua
  • El tiempo en el mapa
  • Informadores
  • user-avatar
    Iniciar sesión

    Tiempo cada hora Maracay

    Hoy, 25 Mayo, Lunes

    Tiempo Temperatura Precipitaciones Viento Presión Humedad
    00:00 +26°C° 0 mm 1 mps 711 mmHg 72%
    01:00 +24°C° 0 mm 0 mps 711 mmHg 73%
    02:00 +26°C° 0 mm 1 mps 711 mmHg 73%
    03:00 +26°C° 0 mm 1 mps 711 mmHg 74%
    04:00 +26°C° 0 mm 1 mps 711 mmHg 74%
    05:00 +26°C° 0 mm 1 mps 711 mmHg 72%
    06:00 +27°C° 0 mm 1 mps 712 mmHg 70%
    07:00 +28°C° 0 mm 1 mps 712 mmHg 67%
    08:00 +29°C° 0 mm 2 mps 712 mmHg 64%
    09:00 +30°C° 0 mm 2 mps 712 mmHg 62%
    10:00 +31°C° 0 mm 3 mps 712 mmHg 59%
    11:00 +31°C° 0 mm 3 mps 712 mmHg 58%
    12:00 +33°C° 0 mm 3 mps 711 mmHg 57%
    13:00 +33°C° 0 mm 3 mps 711 mmHg 56%
    14:00 +33°C° 0.3 mm 3 mps 710 mmHg 57%
    15:00 +31°C° 0.3 mm 3 mps 710 mmHg 59%
    16:00 +31°C° 0.3 mm 3 mps 709 mmHg 60%
    17:00 +30°C° 0 mm 2 mps 709 mmHg 65%
    18:00 +29°C° 0 mm 2 mps 710 mmHg 70%
    19:00 +27°C° 0 mm 1 mps 710 mmHg 75%
    20:00 +27°C° 0 mm 1 mps 711 mmHg 76%
    21:00 +27°C° 0 mm 1 mps 711 mmHg 77%
    22:00 +26°C° 0 mm 1 mps 712 mmHg 79%
    23:00 +26°C° 0 mm 1 mps 711 mmHg 79%

    Mañana, 26 Mayo, Martes

    Tiempo Temperatura Precipitaciones Viento Presión Humedad
    00:00 +26°C° 0 mm 1 mps 711 mmHg 80%
    01:00 +24°C° 0 mm 0 mps 711 mmHg 80%
    02:00 +25°C° 0 mm 1 mps 711 mmHg 81%
    03:00 +25°C° 0 mm 1 mps 710 mmHg 83%
    04:00 +25°C° 0 mm 1 mps 710 mmHg 84%
    05:00 +26°C° 0 mm 1 mps 711 mmHg 82%
    06:00 +26°C° 0 mm 1 mps 712 mmHg 80%
    07:00 +27°C° 0 mm 1 mps 712 mmHg 78%
    08:00 +28°C° 0.1 mm 2 mps 712 mmHg 73%
    09:00 +29°C° 0.1 mm 2 mps 712 mmHg 68%
    10:00 +31°C° 0.1 mm 2 mps 712 mmHg 63%
    11:00 +31°C° 0.1 mm 2 mps 712 mmHg 60%
    12:00 +32°C° 0.1 mm 2 mps 711 mmHg 56%
    13:00 +34°C° 0.1 mm 2 mps 711 mmHg 53%
    14:00 +32°C° 0.5 mm 2 mps 710 mmHg 57%
    15:00 +31°C° 0.5 mm 2 mps 710 mmHg 61%
    16:00 +30°C° 0.5 mm 3 mps 709 mmHg 66%
    17:00 +29°C° 0.4 mm 2 mps 710 mmHg 71%
    18:00 +28°C° 0.4 mm 1 mps 710 mmHg 76%
    19:00 +27°C° 0.4 mm 1 mps 710 mmHg 81%
    20:00 +26°C° 0.2 mm 1 mps 711 mmHg 82%
    21:00 +26°C° 0.2 mm 1 mps 711 mmHg 83%
    22:00 +26°C° 0.2 mm 1 mps 712 mmHg 84%
    23:00 +25°C° 0.3 mm 1 mps 711 mmHg 85%

    Pasado mañana, 27 Mayo, Miércoles

    Tiempo Temperatura Precipitaciones Viento Presión Humedad
    00:00 +25°C° 0.3 mm 1 mps 711 mmHg 87%
    01:00 +25°C° 0.3 mm 1 mps 710 mmHg 88%
    02:00 +25°C° 0.2 mm 1 mps 710 mmHg 88%
    03:00 +24°C° 0.2 mm 1 mps 710 mmHg 89%
    04:00 +24°C° 0.2 mm 1 mps 710 mmHg 89%
    05:00 +25°C° 0 mm 1 mps 711 mmHg 86%
    06:00 +26°C° 0 mm 1 mps 711 mmHg 84%
    07:00 +26°C° 0 mm 1 mps 712 mmHg 81%
    08:00 +28°C° 0.2 mm 1 mps 712 mmHg 75%
    09:00 +29°C° 0.2 mm 1 mps 712 mmHg 69%
    10:00 +30°C° 0.2 mm 1 mps 712 mmHg 64%
    11:00 +31°C° 0.8 mm 1 mps 712 mmHg 63%
    12:00 +31°C° 0.8 mm 2 mps 711 mmHg 63%
    13:00 +31°C° 0.8 mm 2 mps 710 mmHg 62%
    14:00 +30°C° 1.6 mm 1 mps 710 mmHg 65%
    15:00 +30°C° 1.6 mm 1 mps 710 mmHg 68%
    16:00 +29°C° 1.6 mm 1 mps 709 mmHg 71%
    17:00 +28°C° 0.9 mm 1 mps 709 mmHg 75%
    18:00 +27°C° 0.9 mm 1 mps 710 mmHg 79%
    19:00 +26°C° 0.9 mm 1 mps 710 mmHg 83%
    20:00 +26°C° 0.1 mm 1 mps 710 mmHg 83%
    21:00 +25°C° 0.1 mm 1 mps 711 mmHg 83%
    22:00 +25°C° 0.1 mm 1 mps 711 mmHg 83%
    23:00 +25°C° 0 mm 1 mps 711 mmHg 84%

    28 Mayo, Jueves

    Tiempo Temperatura Precipitaciones Viento Presión Humedad
    00:00 +25°C° 0 mm 1 mps 710 mmHg 84%
    01:00 +24°C° 0 mm 1 mps 710 mmHg 85%
    02:00 +24°C° 0 mm 1 mps 710 mmHg 85%
    03:00 +24°C° 0 mm 1 mps 710 mmHg 86%
    04:00 +24°C° 0 mm 1 mps 710 mmHg 86%
    05:00 +25°C° 0 mm 1 mps 710 mmHg 83%
    06:00 +26°C° 0 mm 1 mps 711 mmHg 80%
    07:00 +27°C° 0 mm 1 mps 711 mmHg 76%
    08:00 +28°C° 0.2 mm 1 mps 712 mmHg 71%
    09:00 +29°C° 0.2 mm 1 mps 712 mmHg 66%
    10:00 +31°C° 0.2 mm 1 mps 712 mmHg 61%
    11:00 +31°C° 0.7 mm 2 mps 711 mmHg 61%
    12:00 +31°C° 0.7 mm 2 mps 710 mmHg 62%
    13:00 +31°C° 0.7 mm 2 mps 710 mmHg 62%
    14:00 +31°C° 1.2 mm 2 mps 710 mmHg 64%
    15:00 +30°C° 1.2 mm 2 mps 709 mmHg 67%
    16:00 +30°C° 1.2 mm 2 mps 709 mmHg 69%
    17:00 +29°C° 0.1 mm 2 mps 709 mmHg 74%
    18:00 +27°C° 0.1 mm 2 mps 710 mmHg 79%
    19:00 +26°C° 0.1 mm 1 mps 710 mmHg 84%
    20:00 +26°C° 0 mm 1 mps 710 mmHg 85%
    21:00 +25°C° 0 mm 1 mps 711 mmHg 87%
    22:00 +25°C° 0 mm 1 mps 711 mmHg 88%
    23:00 +25°C° 0 mm 1 mps 711 mmHg 88%

    29 Mayo, Viernes

    Tiempo Temperatura Precipitaciones Viento Presión Humedad
    00:00 +25°C° 0 mm 1 mps 710 mmHg 89%
    01:00 +24°C° 0 mm 1 mps 710 mmHg 89%
    02:00 +24°C° 0 mm 1 mps 710 mmHg 88%
    03:00 +24°C° 0 mm 1 mps 710 mmHg 87%
    04:00 +24°C° 0 mm 1 mps 710 mmHg 87%
    05:00 +25°C° 0 mm 1 mps 710 mmHg 84%
    06:00 +25°C° 0 mm 1 mps 711 mmHg 81%
    07:00 +26°C° 0 mm 2 mps 711 mmHg 78%
    08:00 +27°C° 0 mm 2 mps 711 mmHg 73%
    09:00 +29°C° 0 mm 2 mps 712 mmHg 67%
    10:00 +30°C° 0 mm 3 mps 712 mmHg 61%
    11:00 +30°C° 0.1 mm 3 mps 711 mmHg 59%
    12:00 +31°C° 0.1 mm 3 mps 711 mmHg 58%
    13:00 +31°C° 0.1 mm 2 mps 710 mmHg 57%
    14:00 +31°C° 0.1 mm 2 mps 710 mmHg 59%
    15:00 +31°C° 0.1 mm 2 mps 709 mmHg 61%
    16:00 +30°C° 0.1 mm 2 mps 709 mmHg 63%
    17:00 +29°C° 0.1 mm 2 mps 709 mmHg 69%
    18:00 +28°C° 0.1 mm 1 mps 710 mmHg 75%
    19:00 +26°C° 0.1 mm 1 mps 710 mmHg 80%
    20:00 +26°C° 0.1 mm 1 mps 710 mmHg 81%
    21:00 +26°C° 0.1 mm 1 mps 711 mmHg 82%
    22:00 +26°C° 0.1 mm 1 mps 711 mmHg 83%
    23:00 +25°C° 0 mm 1 mps 711 mmHg 83%

    30 Mayo, Sábado

    Tiempo Temperatura Precipitaciones Viento Presión Humedad
    00:00 +25°C° 0 mm 1 mps 710 mmHg 84%
    01:00 +23°C° 0 mm 0 mps 710 mmHg 84%
    02:00 +25°C° 0 mm 1 mps 710 mmHg 83%
    03:00 +25°C° 0 mm 1 mps 710 mmHg 83%
    04:00 +24°C° 0 mm 1 mps 710 mmHg 82%
    05:00 +25°C° 0 mm 1 mps 711 mmHg 80%
    06:00 +26°C° 0 mm 1 mps 711 mmHg 78%
    07:00 +26°C° 0 mm 1 mps 711 mmHg 76%
    08:00 +28°C° 0 mm 1 mps 712 mmHg 70%
    09:00 +29°C° 0 mm 1 mps 712 mmHg 64%
    10:00 +31°C° 0 mm 1 mps 712 mmHg 58%
    11:00 +31°C° 0.1 mm 2 mps 711 mmHg 58%
    12:00 +31°C° 0.1 mm 2 mps 711 mmHg 58%
    13:00 +31°C° 0.1 mm 2 mps 710 mmHg 57%
    14:00 +31°C° 0.2 mm 2 mps 710 mmHg 58%
    15:00 +31°C° 0.2 mm 2 mps 709 mmHg 59%
    16:00 +31°C° 0.2 mm 1 mps 709 mmHg 60%
    17:00 +29°C° 0.1 mm 1 mps 709 mmHg 66%
    18:00 +28°C° 0.1 mm 1 mps 710 mmHg 72%
    19:00 +26°C° 0.1 mm 1 mps 710 mmHg 77%
    20:00 +26°C° 0 mm 1 mps 710 mmHg 79%
    21:00 +26°C° 0 mm 1 mps 711 mmHg 81%
    22:00 +25°C° 0 mm 1 mps 711 mmHg 83%
    23:00 +25°C° 0.1 mm 1 mps 711 mmHg 84%
    Mostrar más